SNUSat 2
1 43782U 18099AA 22139.41859061 .00004085 00000-0 36429-3 0 9996
2 43782 97.6223 206.9766 0012349 6.9725 353.1667 14.96469661188694
SnugLite
1 43784U 18099AC 22139.59392723 .00005666 00000-0 50052-3 0 9998
2 43784 97.6175 206.7935 0014567 12.3637 347.7939 14.96662452188745
ITASat 1
1 43786U 18099AE 22139.49821517 .00003690 00000-0 32945-3 0 9993
2 43786 97.6240 207.5029 0014950 11.0117 349.1429 14.96455439188721
EAGLET 1
1 43790U 18099AJ 22139.46391864 .00003714 00000-0 33009-3 0 9991
2 43790 97.6233 207.9957 0013119 16.2391 343.9249 14.96653118188455
ESEO
1 43792U 18099AL 22139.45477431 .00001843 00000-0 16859-3 0 9992
2 43792 97.6193 207.2467 0013257 13.1911 346.9654 14.96132715188490
CSIM
1 43793U 18099AM 22139.47214848 .00008549 00000-0 72464-3 0 9990
2 43793 97.6256 208.4840 0011936 10.6752 349.4722 14.98149595188542
Astrocast 0.1
1 43798U 18099AS 22139.46740312 .00007810 00000-0 67544-3 0 9997
2 43798 97.6236 208.4152 0011216 354.6355 5.4745 14.97403325188774
JO-97
1 43803U 18099AX 22139.45843341 .00005415 00000-0 47553-3 0 9996
2 43803 97.6197 207.2116 0014500 11.1947 348.9594 14.96910489188731
Suomi 100
1 43804U 18099AY 22139.14020854 .00005537 00000-0 48716-3 0 9996
2 43804 97.6201 206.8296 0014790 13.7117 346.4503 14.96826898188698
Al Farabi 2
1 43805U 18099AZ 22139.87305782 .00005563 00000-0 48300-3 0 9991
2 43805 97.6228 207.9913 0014997 10.1535 349.9998 14.97340508188821
CHOMPTT
1 43855U 18104G 22139.55036124 .00018194 00000-0 68041-3 0 9997
2 43855 85.0362 70.4110 0015152 356.5016 3.6120 15.27103504190318
ISAT
1 43879U 18111D 22139.53936723 .00006612 00000-0 56643-3 0 9990
2 43879 97.6658 45.6727 0013981 61.7581 298.5051 14.97806228183329
UWE-4
1 43880U 18111E 22139.54583066 .00006336 00000-0 54070-3 0 9996
2 43880 97.6692 46.3605 0013435 63.2117 297.0478 14.97975824183379
Sparrow
1 43881U 18111F 22139.63267371 .00007346 00000-0 62349-3 0 9995
2 43881 97.6727 46.6619 0014230 60.2863 299.9774 14.98124686183391
Lume 1
1 43908U 18111AJ 22139.47437233 .00016419 00000-0 56770-3 0 9995
2 43908 97.1944 28.1992 0019062 170.9118 189.2472 15.29801892188966
FO-99
1 43937U 19003F 22139.85691928 .00019820 00000-0 68053-3 0 9999
2 43937 97.1324 174.3304 0019115 253.1071 106.8074 15.29988292185603
MYSat 1
1 44045U 18092F 22139.45350568 .00061010 00000-0 98429-3 0 9993
2 44045 51.6315 217.1478 0011212 350.7341 9.3440 15.52248263183369
AstroCast 0.2
1 44083U 19018F 22139.38849532 .00010319 00000-0 40282-3 0 9990
2 44083 97.3235 198.8230 0010359 222.9781 137.0649 15.26044243174058
AISTechSat 3
1 44103U 19018AB 22139.13715415 .00013023 00000-0 49284-3 0 9994
2 44103 97.3099 198.9712 0011091 233.0345 126.9879 15.27008734174179
AISat 1
1 44104U 19018AC 22139.49065925 .00011951 00000-0 33983-3 0 9995
2 44104 97.3949 222.5231 0051666 235.8808 123.7528 15.34945413175157
Prox-1
1 44339U 19036A 22139.31597257 .00006780 00000-0 14992-2 0 9996
2 44339 24.0016 17.4041 0010916 255.2648 104.6633 14.54877228154106
Oculus-ASR
1 44348U 19036K 22139.39956598 .00081037 -48327-5 82309-3 0 9997
2 44348 28.5055 32.2594 0253850 346.0873 13.2832 15.32788920160077
Armadillo
1 44352U 19036P 22139.83842248 .00254576 10669-4 15028-2 0 9996
2 44352 28.5228 321.9473 0157961 96.4780 265.3836 15.61249821160761
NO-104
1 44354U 19036R 22139.78342698 .00097014 -40862-5 93771-3 0 9990
2 44354 28.5266 16.5730 0244543 8.3418 352.1148 15.35654732160258
Move-IIb
1 44398U 19038N 22139.88655818 .00016103 00000-0 79260-3 0 9993
2 44398 97.6264 108.9854 0019660 226.4264 133.5344 15.17904887158701
SONATE
1 44400U 19038Q 22139.58439888 .00006462 00000-0 35393-3 0 9997
2 44400 97.6379 107.9652 0022186 230.9202 129.0065 15.14361901158561
BeeSat 9
1 44412U 19038AC 22139.42125547 .00013630 00000-0 70159-3 0 9991
2 44412 97.6342 108.5096 0018823 230.9763 128.9794 15.16388699158290
JAISAT-1
1 44419U 19038F 22139.48205136 .00015203 00000-0 77177-3 0 9992
2 44419 97.6341 109.3857 0017863 227.4649 132.5076 15.16866526158662
LightSail-2
1 44420U 19036AC 22139.82119620 .00109072 00000-0 15213-1 0 9991
2 44420 24.0003 319.4397 0016678 338.9579 21.0231 14.75968396152963
Taurus 1
1 44530U 19059C 22139.72516479 .00002643 00000-0 73921-3 0 9998
2 44530 98.5446 237.9642 0013479 199.8143 160.2564 14.46934779141695
Duchifat 3
1 44854U 19089C 22139.72139462 .00005477 00000-0 42787-3 0 9997
2 44854 36.9673 270.6592 0009201 343.7716 119.4589 15.00873933133615
OPS-SAT
1 44878U 19092F 22139.48967508 .00016027 00000-0 75351-3 0 9996
2 44878 97.4803 323.6986 0013998 83.3742 276.9086 15.19578447133790
TO-108
1 44881U 19093C 22139.81047604 .00000802 00000-0 10838-3 0 9997
2 44881 97.8928 219.4300 0013644 280.9219 79.0466 14.81690621130530
FloripaSat 1
1 44885U 19093G 22139.80579522 .00002599 00000-0 32573-3 0 9994
2 44885 97.8960 220.6308 0013220 287.0708 72.9096 14.83024045130605
RS-44
1 44909U 19096E 22139.57668013 .00000040 00000-0 11354-3 0 9995
2 44909 82.5223 249.4556 0217709 27.5348 333.7088 12.79713281111815
Phoenix
1 45258U 98067RB 22139.08055870 .00352036 58707-4 99220-3 0 9999
2 45258 51.6302 67.7729 0005736 121.9556 238.2009 15.92939377127774
BY70-2
1 45857U 20042B 22139.82069613 .00010657 00000-0 14330-2 0 9991
2 45857 97.9556 216.9436 0011088 198.6371 161.4425 14.79395637101229
UPMSat 2
1 46276U 20061E 22139.63434751 .00007367 00000-0 36593-3 0 9996
2 46276 97.3921 211.1172 0000246 148.4945 211.6304 15.17956459 94507
AmicalSat
1 46287U 20061R 22139.43720314 .00008989 00000-0 52138-3 0 9993
2 46287 97.4467 209.8726 0003155 49.5062 310.6444 15.12380598 94085
SALSAT
1 46495U 20068K 22139.56351784 .00005083 00000-0 36750-3 0 9990
2 46495 97.7293 80.8608 0017294 22.4145 337.7833 15.04378930 89841
BY70-3
1 46839U 20079N 22139.75966978 .00031579 00000-0 77171-3 0 9993
2 46839 97.1994 212.2517 0007136 86.2600 70.5529 15.40738953 85826
SPOC
1 46921U 98067RR 22138.20369013 .00286235 00000-0 11227-2 0 9993
2 46921 51.6294 86.8334 0004440 95.9053 264.2457 15.85606503 87190
Neutron-1
1 46923U 98067RT 22139.82218016 .00298065 00000-0 11300-2 0 9996
2 46923 51.6304 78.9025 0003947 107.1525 252.9911 15.86280809 87461
CAPE 3
1 47309U 21002A 22139.62421789 .00017688 00000-0 72706-3 0 9999
2 47309 60.6829 112.9587 0016616 301.0160 58.9295 15.24201819 74057
AO-109
1 47311U 21002C 22139.62160007 .00015664 00000-0 63508-3 0 9997
2 47311 60.6850 110.7457 0012217 299.8762 60.1112 15.24797510 74074
MiTEE 1
1 47314U 21002F 22139.43429654 .00033334 00000-0 11731-2 0 9999
2 47314 60.6833 105.6871 0009981 283.2678 76.7298 15.29117213 74156
ExoCube 2
1 47319U 21002L 22139.28419626 .00014717 00000-0 60502-3 0 9990
2 47319 60.6833 113.0068 0013528 302.1128 57.8646 15.24358542 73967
UVSQ-SAT
1 47438U 21006AB 22139.42714681 .00010563 00000-0 56239-3 0 9998
2 47438 97.4385 199.0368 0012308 24.1493 336.0314 15.15339975 72880
YUSAT 1
1 47439U 21006AC 22139.14100044 .00011767 00000-0 61980-3 0 9996
2 47439 97.4388 198.8308 0011931 25.7452 334.4372 15.15698519 72842
SOMP 2b
1 47445U 21006AJ 22139.41957465 .00009251 00000-0 49721-3 0 9994
2 47445 97.4356 198.7193 0012035 28.6909 331.4983 15.15046339 72875
IDEASSat
1 47458U 21006AX 22139.13417474 .00009077 00000-0 49037-3 0 9994
2 47458 97.4444 198.9093 0011178 28.5111 331.6731 15.14878445 72827
RSP-01
1 47925U 98067SB 22139.84771113 .00463257 92486-4 14746-2 0 9990
2 47925 51.6306 87.3241 0004854 114.1525 245.9989 15.90565995 67301
